www.pogodaiklimat.ru

Погода и климат >> Архив погоды >> Норвегия >> Флоро аэропорт


ПОГОДА в Флоро аэропорту

  • Прогноз погоды в Флоро аэропорту
  • Монитор погоды в Флоро аэропорту

АРХИВ ПОГОДЫ в Флоро аэропорту

Время (UTC), дата Ветер
(напр.,м/с)
 
Видим.   Явления Облачность Т
(С)
Тd
(С)
f
(%)
Тe
(С)
Тes
(С)
Комфортность P
(гПа)
Po
(гПа)
Тmin
(С)
Tmax
(С)
R
(мм)
R24
(мм)
S
(см)
07 13.09 З 8
{11}
н/о н/о +10.9 +6.7 75 +7 +7 1017.2 1015.8
08 13.09 З 6
{16}
н/о н/о +10.1 +6.8 80 +7 +7 1018.2 1016.8
09 13.09 З 8
{12}
н/о н/о +12.3 +7.4 72 +9 +9 1018.7 1017.3
10 13.09 З 7 н/о н/о +11.9 +7.4 74 +9 +9 1019.3 1018.0
11 13.09 З 7 н/о н/о +11.8 +7.5 75 +9 +9 1019.7 1018.3
12 13.09 З 10
{17}
н/о н/о +12.4 +7.3 71 +9 +9 1019.8 1018.4
13 13.09 З 12 н/о н/о +13.0 +6.6 65 +10 +10 1020.0 1018.6
14 13.09 З 10 н/о н/о +12.8 +7.6 71 +10 +10 1020.6 1019.2
15 13.09 З 9 н/о н/о +12.4 +6.3 66 +9 +9 1021.0 1019.6
16 13.09 З 9 н/о н/о +11.5 +6.6 72 +8 +8 1021.2 1019.8
17 13.09 З 12 н/о н/о +10.6 +4.6 66 +6 +6 1021.6 1020.2
18 13.09 З 9
{18}
н/о н/о +10.7 +7.1 78 +7 +7 1022.5 1021.1 +13.5
19 13.09 З 8 н/о н/о +10.4 +6.9 79 +7 +7 1022.9 1021.5
20 13.09 З 8 н/о н/о +11.0 +6.5 74 +7 +7 1023.0 1021.6
21 13.09 З 10 н/о н/о +11.4 +7.0 74 +8 +8 1022.8 1021.4
22 13.09 З 11 н/о н/о +11.1 +7.6 79 +7 +7 1022.9 1021.5
23 13.09 З 9 н/о н/о +11.4 +7.0 74 +8 +8 1023.0 1021.6
00 14.09 З 9
{16}
н/о н/о +11.4 +6.9 74 +8 +8 1023.2 1021.8
01 14.09 З 9
{16}
н/о н/о +11.5 +7.3 75 +8 +8 1023.6 1022.2
02 14.09 З 9
{14}
н/о н/о +11.5 +7.3 75 +8 +8 1023.5 1022.1
03 14.09 З 10 н/о н/о +11.8 +7.5 75 +8 +8 1023.0 1021.6
04 14.09 З 9
{14}
н/о н/о +11.7 +6.9 72 +8 +8 1022.8 1021.4
05 14.09 З 8
{15}
н/о н/о +11.3 +7.6 78 +8 +8 1022.6 1021.2
06 14.09 ЮЗ 8
{16}
н/о н/о +11.5 +6.5 71 +8 +8 1022.3 1020.9 +9.4 +12.0
07 14.09 ЮЗ 8 н/о н/о +12.0 +7.1 72 +9 +9 1021.5 1020.1
09 14.09 ЮЗ 6
{12}
н/о +10.7 +7.6 81 +8 +8 1020.2 1018.8
10 14.09 ЮЗ 7
{12}
н/о н/о +12.2 +8.5 78 +9 +9 1019.3 1017.9
11 14.09 Ю 8
{15}
н/о н/о +10.7 +8.5 86 +7 +7 1017.8 1016.4
12 14.09 Ю 11 н/о н/о +10.5 +8.3 86 +6 +6 1016.5 1015.1
13 14.09 Ю 13
{17}
н/о н/о +10.3 +8.4 88 +5 +5 1013.8 1012.5
14 14.09 Ю 16
{22}
н/о н/о +10.2 +8.2 87 +5 +5 1011.1 1009.7
15 14.09 Ю 16
{21}
н/о н/о +11.0 +9.5 90 +6 +6 1009.1 1007.7
16 14.09 Ю 17
{23}
н/о н/о +11.3 +10.1 92 +6 +6 1006.0 1004.6
17 14.09 ЮЗ 14
{23}
н/о н/о +12.3 +11.2 93 +8 +8 1004.2 1002.8
18 14.09 ЮЗ 13
{23}
н/о н/о +12.8 +11.8 94 +9 +9 1003.0 1001.6
19 14.09 ЮЗ 16
{20}
н/о н/о +13.5 +12.3 92 +10 +10 1002.2 1000.9
20 14.09 ЮЗ 13
{19}
н/о н/о +13.7 +10.4 80 +10 +10 1001.2 999.9
21 14.09 З 14
{22}
н/о н/о +13.3 +9.1 76 +10 +10 1000.9 999.6
22 14.09 З 15
{21}
н/о н/о +12.8 +7.6 71 +9 +9 1000.5 999.1
23 14.09 ЮЗ 14
{19}
н/о н/о +12.3 +6.6 68 +8 +8 999.6 998.2
00 15.09 ЮЗ 12
{25}
н/о н/о +10.8 +8.8 87 +6 +6 998.5 997.2
01 15.09 З 14
{20}
н/о н/о +11.2 +6.1 71 +7 +7 997.8 996.4
02 15.09 ЮЗ 15
{21}
н/о н/о +11.6 +5.8 68 +7 +7 996.9 995.6
03 15.09 ЮЗ 15
{25}
н/о н/о +11.4 +6.6 72 +7 +7 996.1 994.8
04 15.09 З 16
{23}
н/о н/о +11.1 +6.6 74 +6 +6 995.3 994.0
05 15.09 ЮЗ 17
{23}
н/о н/о +10.6 +7.2 79 +5 +5 994.3 992.9
06 15.09 ЮЗ 16
{28}
н/о н/о +10.4 +7.6 83 +5 +5 993.3 992.0 +8.3 +13.8
07 15.09 ЮЗ 16
{23}
н/о н/о +10.4 +8.5 88 +5 +5 992.5 991.1
08 15.09 З 17
{24}
н/о н/о +11.3 +9.5 89 +6 +6 992.0 990.7
09 15.09 З 14
{23}
н/о н/о +10.7 +8.9 89 +6 +6 992.1 990.8
10 15.09 З 11
{20}
н/о н/о +11.4 +9.4 88 +7 +7 993.4 992.0
11 15.09 З 13
{18}
н/о н/о +11.5 +9.4 87 +7 +7 994.7 993.4
12 15.09 З 13
{24}
н/о н/о +11.6 +9.3 86 +7 +7 996.1 994.8
13 15.09 З 14
{20}
н/о н/о +11.4 +9.0 85 +7 +7 997.0 995.7
14 15.09 З 15
{21}
н/о н/о +11.2 +8.2 82 +6 +6 998.5 997.1
15 15.09 З 18
{23}
н/о н/о +10.9 +9.3 90 +5 +5 998.9 997.5
16 15.09 СЗ 18
{24}
н/о н/о +11.0 +8.4 84 +6 +6 1000.5 999.2
17 15.09 СЗ 17
{24}
н/о н/о +11.1 +7.6 79 +6 +6 1001.8 1000.5
18 15.09 СЗ 16
{24}
н/о н/о +11.0 +6.3 73 +6 +6 1003.9 1002.5 +9.9 +12.3
19 15.09 СЗ 15
{21}
н/о н/о +10.8 +5.6 70 +6 +6 1005.4 1004.0
20 15.09 СЗ 13
{20}
н/о н/о +10.4 +3.5 62 +6 +6 1006.9 1005.5
21 15.09 СЗ 12
{17}
н/о н/о +10.6 +3.8 63 +6 +6 1007.7 1006.3
22 15.09 СЗ 10
{17}
н/о н/о +10.4 +3.2 61 +6 +6 1008.2 1006.8
23 15.09 СЗ 10
{15}
н/о н/о +9.0 +4.5 73 +4 +4 1008.8 1007.4
00 16.09 СЗ 10
{21}
н/о н/о +9.9 +4.2 68 +6 +6 1009.0 1007.6
01 16.09 СЗ 10
{15}
н/о н/о +9.9 +3.3 63 +6 +6 1009.0 1007.7
02 16.09 СЗ 10
{20}
н/о н/о +8.7 +4.8 76 +4 +4 1009.7 1008.4
03 16.09 СЗ 10
{13}
н/о н/о +9.4 +3.7 68 +5 +5 1009.7 1008.3
04 16.09 СЗ 9
{13}
н/о н/о +9.3 +3.1 65 +5 +5 1009.7 1008.3
05 16.09 З 6
{11}
н/о н/о +8.8 +4.2 73 +5 +5 1009.7 1008.3
06 16.09 З 7
{20}
н/о н/о +9.4 +4.7 72 +6 +6 1009.6 1008.2 +7.9 +11.3
07 16.09 СЗ 3
{10}
н/о н/о +8.5 +4.4 75 +6 +6 1009.8 1008.4
08 16.09 З 5
{7}
н/о н/о +8.0 +3.4 73 +4 +4 1009.7 1008.3
09 16.09 З 4
{8}
н/о н/о +7.9 +5.5 85 +5 +5 1009.6 1008.3
10 16.09 СВ 2
{6}
н/о н/о +8.7 +6.6 87 +7 +7 1009.0 1007.6
11 16.09 ЮЗ 4
{13}
н/о н/о +8.9 +6.6 85 +6 +6 1008.7 1007.3
12 16.09 З 11
{14}
н/о н/о +8.4 +5.5 82 +3 +3 1008.5 1007.1
13 16.09 З 7
{14}
н/о н/о +10.3 +6.3 76 +7 +7 1008.2 1006.8
14 16.09 З 8
{13}
н/о н/о +10.0 +4.8 70 +6 +6 1007.9 1006.6
15 16.09 СЗ 4
{13}
н/о н/о +9.4 +5.1 74 +7 +7 1007.5 1006.2
16 16.09 З 7
{12}
н/о н/о +10.6 +5.0 68 +7 +7 1007.0 1005.7
17 16.09 З 6
{13}
н/о н/о +8.3 +3.3 71 +4 +4 1006.8 1005.4
18 16.09 З 5
{14}
н/о н/о +9.4 +4.5 71 +6 +6 1006.2 1004.8 +7.4 +11.4
19 16.09 З 11
{16}
н/о н/о +8.2 +3.8 74 +3 +3 1006.0 1004.6
20 16.09 З 9
{13}
н/о н/о +8.9 +3.5 69 +4 +4 1006.0 1004.7
21 16.09 СЗ 11
{15}
н/о н/о +7.4 +2.8 73 +2 +2 1006.1 1004.7
22 16.09 ЮЗ 2
{11}
н/о н/о +5.8 +2.3 78 +3 +3 1005.5 1004.1
23 16.09 З 5
{12}
н/о н/о +6.5 +2.4 75 +2 +2 1005.4 1004.0
00 17.09 З 5
{16}
н/о н/о +6.9 +3.8 81 +3 +3 1004.9 1003.5
01 17.09 С 6
{9}
н/о н/о +7.1 +3.3 77 +3 +3 1004.8 1003.4
02 17.09 СЗ 7
{9}
н/о н/о +5.8 +3.3 84 +1 +1 1005.3 1003.9
03 17.09 В 3
{9}
н/о н/о +5.7 +3.3 85 +2 +2 1005.4 1004.1
04 17.09 В 4
{5}
н/о н/о +5.1 +3.1 87 +1 +1 1005.8 1004.4
05 17.09 ЮВ 4
{5}
н/о н/о +4.8 +3.4 91 +1 +1 1006.3 1004.9
06 17.09 штиль 0
{9}
н/о н/о +5.3 +3.9 91 +4 +4 1007.4 1006.0 +4.5 +9.6
07 17.09 В 2
{3}
н/о н/о +6.0 +4.7 91 +3 +3 1008.2 1006.8
08 17.09 В 2
{4}
н/о н/о +7.1 +4.8 85 +5 +5 1009.3 1008.0
09 17.09 Ю 2
{3}
н/о н/о +7.9 +4.4 79 +6 +6 1010.2 1008.8
10 17.09 ЮЗ 1
{3}
н/о н/о +6.4 +3.2 80 +5 +5 1011.3 1009.9
11 17.09 З 1
{3}
н/о н/о +6.6 +4.4 86 +6 +6 1012.1 1010.7
12 17.09 С 5
{8}
н/о н/о +8.7 +7.0 89 +5 +5 1012.7 1011.3
13 17.09 С 9
{16}
н/о н/о +9.4 +6.3 81 +5 +5 1013.4 1012.0
14 17.09 СЗ 12
{17}
н/о н/о +10.8 +5.3 69 +6 +6 1014.2 1012.8
15 17.09 СЗ 14
{18}
н/о н/о +10.6 +4.4 65 +6 +6 1015.0 1013.6
16 17.09 СЗ 11
{16}
н/о н/о +10.5 +4.5 66 +6 +6 1015.7 1014.3
17 17.09 СЗ 11
{15}
н/о н/о +10.5 +4.1 65 +6 +6 1016.2 1014.8
18 17.09 СЗ 11
{18}
н/о н/о +10.3 +3.8 64 +6 +6 1016.5 1015.2 +5.0 +10.9
19 17.09 СЗ 9
{13}
н/о н/о +10.1 +2.4 59 +6 +6 1017.2 1015.8
20 17.09 СЗ 9
{14}
н/о н/о +9.1 +4.9 75 +5 +5 1017.9 1016.5
21 17.09 СЗ 11
{15}
н/о н/о +9.1 +5.5 78 +4 +4 1018.0 1016.6
22 17.09 З 8
{14}
н/о н/о +9.1 +6.6 84 +5 +5 1017.8 1016.4
23 17.09
{12}
н/о н/о +8.7 +5.5 80 1017.8 1016.4
00 18.09 С 4
{15}
н/о н/о +8.2 +5.2 81 +5 +5 1018.3 1016.9
01 18.09 СВ 3
{6}
н/о н/о +7.2 +5.5 89 +4 +4 1018.8 1017.4
02 18.09 С 2
{5}
н/о н/о +7.9 +5.8 87 +6 +6 1019.0 1017.6
03 18.09 С 3
{5}
н/о н/о +8.3 +5.3 81 +6 +6 1019.5 1018.1
04 18.09 С 2
{8}
н/о н/о +8.0 +4.8 80 +6 +6 1020.2 1018.8
05 18.09 С 4
{6}
н/о н/о +8.2 +4.5 77 +5 +5 1020.7 1019.3
06 18.09 С 7
{11}
н/о н/о +8.7 +4.6 75 +5 +5 1021.1 1019.7 +7.2 +10.4
07 18.09 С 3
{9}
н/о н/о +9.3 +3.9 69 +7 +7 1021.5 1020.1
08 18.09 С 6
{10}
н/о н/о +10.2 +4.7 69 +7 +7 1022.2 1020.8
09 18.09 С 5
{9}
н/о н/о +10.4 +4.1 65 +8 +8 1022.7 1021.3
10 18.09 С 6
{10}
н/о н/о +10.7 +4.2 64 +8 +8 1023.1 1021.7
11 18.09 С 5
{11}
н/о н/о +11.0 +3.8 61 +8 +8 1023.7 1022.3
12 18.09 С 7
{11}
н/о н/о +11.3 +4.0 61 +8 +8 1023.9 1022.6
13 18.09 С 5
{13}
н/о н/о +9.8 +4.4 69 +7 +7 1024.4 1023.0
14 18.09 СЗ 9
{12}
н/о н/о +10.4 +4.1 65 +7 +7 1024.7 1023.3
15 18.09 СЗ 7
{12}
н/о н/о +10.2 +3.2 62 +7 +7 1025.0 1023.6
16 18.09 СЗ 6
{10}
н/о н/о +10.5 +3.2 61 +8 +8 1025.2 1023.8
17 18.09 С 5
{11}
н/о н/о +8.0 +4.9 81 +4 +4 1025.7 1024.3
18 18.09 СЗ 4
{13}
н/о н/о +8.9 +5.9 81 +6 +6 1025.7 1024.3 +7.9 +11.4
19 18.09 С 3
{5}
н/о н/о +8.2 +5.1 81 +6 +6 1026.0 1024.6
20 18.09
{4}
н/о н/о +7.5 +4.8 83 1026.4 1025.0
21 18.09 штиль 0
{4}
н/о н/о +6.5 +4.1 85 +6 +6 1026.6 1025.2
22 18.09 штиль 0
{2}
н/о н/о +5.5 +4.1 91 +4 +4 1026.8 1025.4
23 18.09 штиль 0 н/о н/о +5.0 +3.8 92 +4 +4 1026.8 1025.4
00 19.09 В 2
{5}
н/о н/о +6.1 +5.1 93 +4 +4 1027.3 1025.9
01 19.09 В 2
{3}
н/о н/о +6.0 +5.1 94 +3 +3 1027.4 1026.0
02 19.09 В 2
{3}
н/о н/о +6.0 +5.2 95 +3 +3 1027.3 1025.9
03 19.09 В 2
{3}
н/о н/о +5.5 +4.6 94 +3 +3 1027.3 1025.8
04 19.09 В 2
{3}
н/о н/о +5.7 +4.9 95 +3 +3 1027.2 1025.8
05 19.09 В 3
{4}
н/о н/о +6.6 +5.9 95 +3 +3 1027.1 1025.7
06 19.09 В 3
{4}
н/о н/о +6.7 +5.9 95 +3 +3 1027.1 1025.7 +4.9 +9.0
07 19.09 В 4
{5}
н/о н/о +7.1 +6.1 93 +3 +3 1027.4 1026.0
08 19.09 В 3
{5}
н/о н/о +7.6 +6.3 91 +5 +5 1027.3 1025.9
09 19.09 В 3
{4}
н/о н/о +8.1 +6.5 90 +5 +5 1027.5 1026.1
10 19.09 ЮВ 3
{4}
н/о н/о +7.9 +6.3 90 +5 +5 1027.5 1026.1
11 19.09 ЮВ 4
{6}
н/о н/о +7.7 +6.0 89 +4 +4 1027.0 1025.6
12 19.09 ЮЗ 5
{8}
н/о н/о +7.4 +6.1 91 +3 +3 1026.8 1025.3
13 19.09 Ю 6
{8}
н/о н/о +7.7 +5.8 88 +3 +3 1026.5 1025.1
14 19.09 Ю 8
{10}
н/о н/о +7.3 +5.4 88 +2 +2 1026.0 1024.6
15 19.09 Ю 7
{10}
н/о н/о +7.3 +5.5 88 +3 +3 1025.9 1024.4
16 19.09 Ю 7
{10}
н/о н/о +6.9 +5.1 88 +2 +2 1024.9 1023.5
17 19.09 ЮВ 6
{8}
н/о н/о +7.4 +5.8 90 +3 +3 1024.2 1022.8
18 19.09 В 7
{10}
н/о н/о +7.3 +6.2 93 +2 +2 1023.6 1022.2 +6.7 +8.3
19 19.09 В 7
{10}
н/о н/о +7.2 +6.3 94 +2 +2 1023.1 1021.7
20 19.09 В 7
{9}
н/о н/о +7.1 +6.3 95 +2 +2 1023.2 1021.8
21 19.09 В 8
{10}
н/о н/о +7.5 +6.8 95 +2 +2 1022.7 1021.3
22 19.09 В 6
{10}
н/о н/о +7.4 +6.9 97 +3 +3 1022.8 1021.4
23 19.09 В 7
{9}
н/о н/о +8.0 +7.5 97 +3 +3 1022.1 1020.7
00 20.09 н/о
01 20.09
{8}
н/о н/о +8.5 +8.0 97 1022.2 1020.8
02 20.09 В 6
{7}
н/о н/о +8.7 +8.2 97 +5 +5 1021.9 1020.5
03 20.09 В 5
{6}
н/о н/о +8.9 +8.5 97 +5 +5 1021.8 1020.4
04 20.09 В 2
{6}
н/о н/о +9.2 +8.8 97 +7 +7 1021.7 1020.3
05 20.09 ЮЗ 5
{7}
н/о н/о +11.2 +10.8 97 +8 +8 1021.7 1020.3
06 20.09 З 5
{9}
н/о н/о +11.5 +11.1 97 +9 +9 1021.6 1020.3
07 20.09 З 7
{9}
н/о н/о +11.4 +11.0 97 +8 +8 1022.1 1020.7

 

Местоположение метеостанции Флоро аэропорт (Норвегия): широта 61.58 долгота 5.03 высота над уровнем моря 9 м.

В архиве по умолчанию представлена погода в Флоро аэропорту за последнюю неделю. Архивные данные за месяц целиком и за предыдущие месяцы, начиная с января 2011 года, Вы можете получить, выбрав интересующий диапазон дат из раскрывающегося списка и нажав кнопку "Ввод!".


*Определитесь, кто Вы:
робот инопланетянин человек

Внимание! Время в таблицах - всемирное. Для получения местного времени необходимо прибавить поправку, которая равна 1 ч.

Смотрите также архив погоды в соседних городах и на ближайших метеорологических станциях:

Погода на Маяке Ytteroyane (Норвегия) (19 км)
Погода в Фурунесете (Норвегия) (32 км)
Погода во Флурё аэропорту (Норвегия) (44 км)
Погода во Флурё (Норвегия) (49 км)
Погода на Маяке Krakenes (Норвегия) (50 км)
Погода в Сандан аэропорту (Норвегия) (63 км)
Погода в Такле (Норвегия) (64 км)
Погода в Фиске (Норвегия) (65 км)
Погода в Берген аэропорту (Норвегия) (80 км)
Погода на Маяке Svinoy (Норвегия) (84 км)

Пояснения к столбцам:

Ветер - указаны скорость ветра в м/с - средняя за 10 мин, порывы в срок и между сроками (в фигурных скобках) и направление, откуда дует ветер: С - северный, СВ - северо-восточный, В - восточный, ЮВ - юго-восточный, Ю - южный, ЮЗ - юго-западный, З - западный, СЗ - северо-западный.
Видимость - горизонтальная дальность видимости в метрах или километрах. При видимости от 1 до 10 км при отсутствии осадков обычно наблюдается дымка, при ухудшении видимости до 1 км и менее - туман. В сухую погоду видимость может ухудшаться дымом, пылью или мглою.
Явления - указаны атмосферные явления, наблюдавшиеся в срок или в последний час перед сроком; фигурными скобками обозначены явления, наблюдавшиеся между сроками (за 1-3 часа до срока); квадратными скобками обозначены град или гололедные отложения с указанием их диаметра в мм.
Облачность - указаны через наклонную черту общая и нижняя облачность в баллах и высота нижней границы облаков в метрах; квадратными скобками обозначены формы облаков: Ci - перистые, Cs - перисто-слоистые, Cc - перисто-кучевые, Ac - высококучевые, As - высокослоистые, Sc - слоисто-кучевые, Ns - слоисто-дождевые, Cu - кучевые, Cb - кучево-дождевые. Подробнее классификацию облаков см. в Атласе облаков (PDF).
T - Температура воздуха - температура, измеренная на высоте 2 м над землей.
Td - Температура точки росы - температура, при понижении до которой содержащийся в воздухе водяной пар достигнет насыщения.
f - Относительная влажность воздуха - влажноcть воздуха, измеренная на высоте 2 м над землей.
Te - Эффективная температура - температура, которую ощущает одетый по сезону человек в тени. Характеристика душности погоды. При расчете учитывается влияние влажности воздуха и скорости ветра на теплоощущения человека.
Tes - Эффективная температура на солнце - температура, которую ощущает человек, с поправкой на солнечный нагрев. Характеристика знойности погоды. Зависит от высоты солнца над горизонтом, облачности и скорости ветра. Ночью, в пасмурную погоду, а также при ветре 12 м/с и более поправка равна нулю.
P - Атмосферное давление - приведенное к уровню моря атмосферное давление.
Po - Атмосферное давление - измеренное на уровне метеостанции атмосферное давление.
Tmin - Минимальная температура - минимум температуры воздуха на высоте 2 м над землей.
Tmax - Максимальная температура - максимум температуры воздуха на высоте 2 м над землей.
R - Количество осадков - Количество выпавших осадков за период времени, мм. При наведении курсора мыши на число - период времени, за который выпало указанное количество осадков.
R24 - Количество осадков - Количество выпавших осадков за 24 часа, мм.
S - Снежный покров - Высота снежного покрова, см. При наведении курсора мыши на число - состояние снежного покрова и степень покрытия местности в баллах.